This is the latest recevied weather packets stored in our database for station/object OE6ATD-13. If no packets are shown the sender has not sent any weather packets the latest 10 day(s).
| Time | Temp. | Humidity | Pressure | Rain* | Wind** | Luminosity | Snow |
|---|---|---|---|---|---|---|---|
| 1788690020 | 25.56° C | 45% | 1025.5 hPa | 0 mm | - | 801 W/m² | - |
| 1788689416 | 25.56° C | 45% | 1025.5 hPa | 0 mm | - | 792 W/m² | - |
| 1788688848 | 25° C | 46% | 1025.7 hPa | 0 mm | - | 774 W/m² | - |
| 1788688223 | 25° C | 47% | 1025.7 hPa | 0 mm | - | 756 W/m² | - |
| 1788687619 | 24.44° C | 50% | 1025.9 hPa | 0 mm | - | 740 W/m² | - |
| 1788687035 | 23.89° C | 50% | 1026 hPa | 0 mm | - | 716 W/m² | - |
| 1788686425 | 23.33° C | 50% | 1026 hPa | 0 mm | - | 699 W/m² | - |
| 1788685821 | 23.33° C | 51% | 1025.9 hPa | 0 mm | - | 678 W/m² | - |
| 1788685246 | 23.33° C | 51% | 1026 hPa | 0 mm | - | 661 W/m² | - |
| 1788684627 | 22.78° C | 52% | 1026.1 hPa | 0 mm | - | 638 W/m² | - |
| 1788684024 | 22.78° C | 57% | 1026.2 hPa | 0 mm | - | 613 W/m² | - |
| 1788683432 | 21.67° C | 60% | 1026.3 hPa | 0 mm | - | 584 W/m² | - |
| 1788682830 | 21.67° C | 61% | 1026.2 hPa | 0 mm | - | 556 W/m² | - |
| 1788682226 | 21.67° C | 61% | 1026.2 hPa | 0 mm | - | 536 W/m² | - |
| 1788681641 | 21.11° C | 60% | 1026.2 hPa | 0 mm | - | 507 W/m² | - |
| 1788681018 | 21.67° C | 70% | 1026.1 hPa | 0 mm | - | 529 W/m² | - |
| 1788680428 | 21.67° C | 75% | 1026.1 hPa | 0 mm | - | 497 W/m² | - |
| 1788679824 | 20.56° C | 80% | 1026 hPa | 0 mm | - | 446 W/m² | - |
| 1788679224 | 20° C | 92% | 1026 hPa | 0 mm | - | 407 W/m² | - |
| 1788678620 | 19.44° C | 99% | 1026 hPa | 0 mm | - | 383 W/m² | - |
| 1788678016 | 19.44° C | 99% | 1026 hPa | 0 mm | - | 176 W/m² | - |
| 1788677427 | 19.44° C | 99% | 1026.1 hPa | 0 mm | - | 289 W/m² | - |
| 1788676822 | 18.89° C | 99% | 1026 hPa | 0 mm | - | 250 W/m² | - |
| 1788676218 | 17.22° C | 99% | 1025.9 hPa | 0 mm | - | 210 W/m² | - |
| 1788675629 | 16.11° C | 99% | 1025.9 hPa | 0 mm | - | 188 W/m² | - |
* Rain latest hour (hover to see other rain measurements)
** Current wind speed in m/s (hover to see current wind gust speed)